{"data":{"norad_id":66506,"intl_designator":"2025-263X","name":"STARLINK-34765","alt_names":[],"object_type":"PAYLOAD","status":"ACTIVE","operator":null,"country":"US","launch_date":"2025-11-15","launch_site_code":"AFETR","launch_vehicle":null,"mission":null,"orbit_class":"UNKNOWN","rcs_meters":null,"size_class":null,"mass_kg":null,"dimensions":null,"purposes":["comms"],"wikipedia_slug":null,"has_3d_model":false,"image_url":null,"decayed_at":null,"tle_current":{"epoch":"2026-05-25T02:13:00.634080Z","epoch_age_seconds":67886,"freshness":"FRESH","line1":"1 66506U 25263X   26145.09236845  .00014808  00000+0  54642-3 0  9990","line2":"2 66506  43.0007 279.2229 0002441 279.2442  80.8134 15.27586012 30580","mean_motion":15.27586012,"eccentricity":0.0002441,"inclination_deg":43.0007,"raan_deg":279.2229,"arg_perigee_deg":279.2442,"mean_anomaly_deg":80.8134,"bstar":0.00054642,"rev_number":3058,"period_min":94.26637771543,"perigee_km":481.35628287614,"apogee_km":484.70590513964,"semimajor_km":6861.1680940079,"source":"CELESTRAK","updated_at":"2026-05-25T13:38:21.246874Z"}}}